Time,TemperatureF,DewpointF,PressureIn,WindDirection,WindDirectionDegrees,WindSpeedMPH,WindSpeedGustMPH,Humidity,HourlyPrecipIn,Conditions,Clouds,dailyrainin,SoftwareType,DateUTC
2013-02-10 00:00:00,11.9,3.4,30.15,WNW,288,0.0,8.0,68,0.00,,,0.00,Wunderground v.1.15,2013-02-10 05:00:00,
2013-02-10 00:05:00,11.9,3.0,30.15,SSE,157,0.0,8.0,67,0.00,,,0.00,Wunderground v.1.15,2013-02-10 05:05:00,
2013-02-10 00:15:00,12.1,2.6,30.15,SSE,152,0.0,8.0,65,0.00,,,0.00,Wunderground v.1.15,2013-02-10 05:15:00,
2013-02-10 00:20:00,12.1,2.6,30.15,SE,140,0.0,8.0,65,0.00,,,0.00,Wunderground v.1.15,2013-02-10 05:20:00,
2013-02-10 00:25:00,12.3,2.4,30.15,SSE,152,0.0,8.0,64,0.00,,,0.00,Wunderground v.1.15,2013-02-10 05:25:00,
2013-02-10 00:30:00,12.4,2.5,30.15,SE,131,0.0,8.0,64,0.00,,,0.00,Wunderground v.1.15,2013-02-10 05:30:00,
2013-02-10 00:35:00,12.4,2.9,30.15,East,82,0.0,8.0,65,0.00,,,0.00,Wunderground v.1.15,2013-02-10 05:35:00,
2013-02-10 00:45:00,12.6,3.1,30.15,ESE,103,0.0,8.0,65,0.00,,,0.00,Wunderground v.1.15,2013-02-10 05:45:00,
2013-02-10 00:50:00,12.6,3.1,30.15,South,174,1.0,1.0,65,0.00,,,0.00,Wunderground v.1.15,2013-02-10 05:50:00,
2013-02-10 00:55:00,12.6,2.7,30.15,SSE,157,0.0,8.0,64,0.00,,,0.00,Wunderground v.1.15,2013-02-10 05:55:00,
2013-02-10 01:00:00,12.6,2.4,30.16,East,83,0.0,0.0,63,0.00,,,0.00,Wunderground v.1.15,2013-02-10 06:00:00,
2013-02-10 01:10:00,12.6,3.1,30.16,ESE,123,0.0,0.0,65,0.00,,,0.00,Wunderground v.1.15,2013-02-10 06:10:00,
2013-02-10 01:20:00,12.6,3.1,30.16,South,169,0.0,0.0,65,0.00,,,0.00,Wunderground v.1.15,2013-02-10 06:20:00,
2013-02-10 01:25:00,12.6,3.1,30.16,ENE,78,0.0,1.0,65,0.00,,,0.00,Wunderground v.1.15,2013-02-10 06:25:00,
2013-02-10 01:30:00,12.8,2.2,30.16,SE,137,0.0,1.0,62,0.00,,,0.00,Wunderground v.1.15,2013-02-10 06:30:00,
2013-02-10 01:35:00,12.8,2.9,30.16,ESE,123,1.0,1.0,64,0.00,,,0.00,Wunderground v.1.15,2013-02-10 06:35:00,
2013-02-10 01:40:00,12.8,2.6,30.16,WNW,285,0.0,0.0,63,0.00,,,0.00,Wunderground v.1.15,2013-02-10 06:40:00,
2013-02-10 01:45:00,12.8,3.2,30.17,WNW,296,0.0,0.0,65,0.00,,,0.00,Wunderground v.1.15,2013-02-10 06:45:00,
2013-02-10 01:55:00,12.6,3.1,30.17,SSE,160,0.0,0.0,65,0.00,,,0.00,Wunderground v.1.15,2013-02-10 06:55:00,
2013-02-10 02:00:00,12.6,3.1,30.18,SSW,195,0.0,0.0,65,0.00,,,0.00,Wunderground v.1.15,2013-02-10 07:00:00,
2013-02-10 02:05:00,12.6,2.4,30.18,NNW,344,0.0,1.0,63,0.00,,,0.00,Wunderground v.1.15,2013-02-10 07:05:00,
2013-02-10 02:10:00,12.6,2.4,30.18,WNW,287,0.0,2.0,63,0.00,,,0.00,Wunderground v.1.15,2013-02-10 07:10:00,
2013-02-10 02:15:00,12.6,2.4,30.18,South,171,0.0,2.0,63,0.00,,,0.00,Wunderground v.1.15,2013-02-10 07:15:00,
2013-02-10 02:25:00,12.6,2.0,30.18,NE,49,0.0,2.0,62,0.00,,,0.00,Wunderground v.1.15,2013-02-10 07:25:00,
2013-02-10 02:30:00,12.6,2.4,30.19,SW,230,0.0,2.0,63,0.00,,,0.00,Wunderground v.1.15,2013-02-10 07:30:00,
2013-02-10 02:35:00,12.4,3.2,30.19,SW,222,0.0,2.0,66,0.00,,,0.00,Wunderground v.1.15,2013-02-10 07:35:00,
2013-02-10 02:40:00,12.3,3.7,30.19,SSW,205,0.0,2.0,68,0.00,,,0.00,Wunderground v.1.15,2013-02-10 07:40:00,
2013-02-10 02:45:00,12.1,2.2,30.18,SSW,195,0.0,2.0,64,0.00,,,0.00,Wunderground v.1.15,2013-02-10 07:45:00,
2013-02-10 02:50:00,11.9,1.7,30.18,SW,223,0.0,2.0,63,0.00,,,0.00,Wunderground v.1.15,2013-02-10 07:50:00,
2013-02-10 03:00:00,11.6,2.8,30.18,South,189,0.0,2.0,67,0.00,,,0.00,Wunderground v.1.15,2013-02-10 08:00:00,
2013-02-10 03:05:00,11.4,2.6,30.18,South,189,0.0,2.0,67,0.00,,,0.00,Wunderground v.1.15,2013-02-10 08:05:00,
2013-02-10 03:10:00,11.2,2.7,30.18,SSW,205,0.0,2.0,68,0.00,,,0.00,Wunderground v.1.15,2013-02-10 08:10:00,
2013-02-10 03:15:00,11.1,1.9,30.19,SSW,205,0.0,2.0,66,0.00,,,0.00,Wunderground v.1.15,2013-02-10 08:15:00,
2013-02-10 03:20:00,10.7,1.6,30.19,SSW,205,0.0,2.0,66,0.00,,,0.00,Wunderground v.1.15,2013-02-10 08:20:00,
2013-02-10 03:30:00,10.4,1.9,30.20,SSW,206,0.0,2.0,68,0.00,,,0.00,Wunderground v.1.15,2013-02-10 08:30:00,
2013-02-10 03:35:00,10.0,1.5,30.20,SSW,206,0.0,2.0,68,0.00,,,0.00,Wunderground v.1.15,2013-02-10 08:35:00,
2013-02-10 03:40:00,9.9,1.4,30.20,SSW,206,0.0,2.0,68,0.00,,,0.00,Wunderground v.1.15,2013-02-10 08:40:00,
2013-02-10 03:50:00,9.5,1.1,30.20,South,191,0.0,2.0,68,0.00,,,0.00,Wunderground v.1.15,2013-02-10 08:50:00,
2013-02-10 03:55:00,9.3,0.9,30.20,South,191,0.0,2.0,68,0.00,,,0.00,Wunderground v.1.15,2013-02-10 08:55:00,
2013-02-10 04:00:00,9.2,1.1,30.20,SW,222,0.0,2.0,69,0.00,,,0.00,Wunderground v.1.15,2013-02-10 09:00:00,
2013-02-10 04:10:00,8.8,0.7,30.20,SW,220,0.0,2.0,69,0.00,,,0.00,Wunderground v.1.15,2013-02-10 09:10:00,
2013-02-10 04:15:00,8.6,1.1,30.22,SW,222,0.0,2.0,71,0.00,,,0.00,Wunderground v.1.15,2013-02-10 09:15:00,
2013-02-10 04:20:00,8.6,1.1,30.22,West,270,0.0,2.0,71,0.00,,,0.00,Wunderground v.1.15,2013-02-10 09:20:00,
2013-02-10 04:25:00,8.4,1.2,30.22,West,270,0.0,2.0,72,0.00,,,0.00,Wunderground v.1.15,2013-02-10 09:25:00,
2013-02-10 04:30:00,8.3,1.1,30.22,WSW,254,0.0,2.0,72,0.00,,,0.00,Wunderground v.1.15,2013-02-10 09:30:00,
2013-02-10 04:40:00,7.9,1.0,30.22,WSW,254,0.0,2.0,73,0.00,,,0.00,Wunderground v.1.15,2013-02-10 09:40:00,
2013-02-10 04:45:00,7.6,1.0,30.22,WSW,254,0.0,2.0,74,0.00,,,0.00,Wunderground v.1.15,2013-02-10 09:45:00,
2013-02-10 04:50:00,7.4,0.8,30.22,WSW,254,0.0,2.0,74,0.00,,,0.00,Wunderground v.1.15,2013-02-10 09:50:00,
2013-02-10 04:55:00,7.2,0.7,30.22,WSW,254,0.0,2.0,74,0.00,,,0.00,Wunderground v.1.15,2013-02-10 09:55:00,
2013-02-10 05:00:00,7.0,0.5,30.23,SE,137,0.0,2.0,74,0.00,,,0.00,Wunderground v.1.15,2013-02-10 10:00:00,
2013-02-10 05:10:00,7.0,0.7,30.23,South,176,0.0,2.0,75,0.00,,,0.00,Wunderground v.1.15,2013-02-10 10:10:00,
2013-02-10 05:15:00,7.0,0.7,30.23,South,176,0.0,2.0,75,0.00,,,0.00,Wunderground v.1.15,2013-02-10 10:15:00,
2013-02-10 05:20:00,7.0,1.0,30.23,South,178,0.0,2.0,76,0.00,,,0.00,Wunderground v.1.15,2013-02-10 10:20:00,
2013-02-10 05:25:00,7.0,1.0,30.23,South,178,0.0,2.0,76,0.00,,,0.00,Wunderground v.1.15,2013-02-10 10:25:00,
2013-02-10 05:30:00,7.0,1.0,30.24,South,174,0.0,2.0,76,0.00,,,0.00,Wunderground v.1.15,2013-02-10 10:30:00,
2013-02-10 05:35:00,7.2,0.9,30.24,SSE,161,0.0,2.0,75,0.00,,,0.00,Wunderground v.1.15,2013-02-10 10:35:00,
2013-02-10 05:45:00,7.4,0.3,30.25,SSE,150,0.0,2.0,72,0.00,,,0.00,Wunderground v.1.15,2013-02-10 10:45:00,
2013-02-10 05:50:00,7.9,0.7,30.25,East,90,0.0,2.0,72,0.00,,,0.00,Wunderground v.1.15,2013-02-10 10:50:00,
2013-02-10 05:55:00,8.1,0.6,30.25,SSE,162,0.0,2.0,71,0.00,,,0.00,Wunderground v.1.15,2013-02-10 10:55:00,
2013-02-10 06:00:00,8.4,0.0,30.26,SSE,162,0.0,2.0,68,0.00,,,0.00,Wunderground v.1.15,2013-02-10 11:00:00,
2013-02-10 06:05:00,8.6,1.1,30.26,SSW,195,0.0,2.0,71,0.00,,,0.00,Wunderground v.1.15,2013-02-10 11:05:00,
2013-02-10 06:15:00,8.8,2.2,30.26,SSW,195,0.0,2.0,74,0.00,,,0.00,Wunderground v.1.15,2013-02-10 11:15:00,
2013-02-10 06:20:00,8.8,2.2,30.26,SSW,195,0.0,2.0,74,0.00,,,0.00,Wunderground v.1.15,2013-02-10 11:20:00,
2013-02-10 06:25:00,8.6,2.0,30.26,SSW,195,0.0,2.0,74,0.00,,,0.00,Wunderground v.1.15,2013-02-10 11:25:00,
2013-02-10 06:30:00,8.6,2.3,30.26,SSW,195,0.0,2.0,75,0.00,,,0.00,Wunderground v.1.15,2013-02-10 11:30:00,
2013-02-10 06:35:00,8.4,2.1,30.26,SSW,195,0.0,2.0,75,0.00,,,0.00,Wunderground v.1.15,2013-02-10 11:35:00,
2013-02-10 06:40:00,8.3,2.0,30.26,SSW,195,0.0,2.0,75,0.00,,,0.00,Wunderground v.1.15,2013-02-10 11:40:00,
2013-02-10 06:50:00,7.9,1.6,30.28,SSW,195,0.0,2.0,75,0.00,,,0.00,Wunderground v.1.15,2013-02-10 11:50:00,
2013-02-10 06:55:00,7.7,1.7,30.28,SSW,195,0.0,2.0,76,0.00,,,0.00,Wunderground v.1.15,2013-02-10 11:55:00,
2013-02-10 07:00:00,7.6,1.6,30.28,SSW,195,0.0,2.0,76,0.00,,,0.00,Wunderground v.1.15,2013-02-10 12:00:00,
2013-02-10 07:10:00,7.2,1.2,30.28,SSW,195,0.0,2.0,76,0.00,,,0.00,Wunderground v.1.15,2013-02-10 12:10:00,
2013-02-10 07:15:00,7.0,1.0,30.29,SSW,195,0.0,2.0,76,0.00,,,0.00,Wunderground v.1.15,2013-02-10 12:15:00,
2013-02-10 07:25:00,6.7,1.0,30.29,SSW,195,0.0,2.0,77,0.00,,,0.00,Wunderground v.1.15,2013-02-10 12:25:00,
2013-02-10 07:30:00,6.5,0.8,30.30,SSW,195,0.0,2.0,77,0.00,,,0.00,Wunderground v.1.15,2013-02-10 12:30:00,
2013-02-10 07:35:00,6.5,0.8,30.30,South,171,0.0,2.0,77,0.00,,,0.00,Wunderground v.1.15,2013-02-10 12:35:00,
2013-02-10 07:40:00,6.7,1.0,30.30,ESE,106,0.0,2.0,77,0.00,,,0.00,Wunderground v.1.15,2013-02-10 12:40:00,
2013-02-10 07:45:00,6.9,0.6,30.31,ESE,107,0.0,2.0,75,0.00,,,0.00,Wunderground v.1.15,2013-02-10 12:45:00,
2013-02-10 07:55:00,7.2,1.8,30.31,ESE,107,0.0,2.0,78,0.00,,,0.00,Wunderground v.1.15,2013-02-10 12:55:00,
2013-02-10 08:00:00,7.4,2.3,30.32,ESE,107,0.0,2.0,79,0.00,,,0.00,Wunderground v.1.15,2013-02-10 13:00:00,
2013-02-10 08:05:00,7.7,2.5,30.32,ESE,110,0.0,2.0,79,0.00,,,0.00,Wunderground v.1.15,2013-02-10 13:05:00,
2013-02-10 08:10:00,8.1,2.7,30.32,ESE,110,0.0,2.0,78,0.00,,,0.00,Wunderground v.1.15,2013-02-10 13:10:00,
2013-02-10 08:15:00,8.1,2.7,30.32,ESE,110,0.0,2.0,78,0.00,,,0.00,Wunderground v.1.15,2013-02-10 13:15:00,
2013-02-10 08:20:00,8.6,3.1,30.32,ESE,112,0.0,2.0,78,0.00,,,0.00,Wunderground v.1.15,2013-02-10 13:20:00,
2013-02-10 08:30:00,9.9,4.4,30.32,ESE,114,0.0,2.0,78,0.00,,,0.00,Wunderground v.1.15,2013-02-10 13:30:00,
2013-02-10 08:35:00,10.2,5.3,30.32,ESE,114,0.0,2.0,80,0.00,,,0.00,Wunderground v.1.15,2013-02-10 13:35:00,
2013-02-10 08:40:00,11.1,6.7,30.32,WNW,296,0.0,2.0,82,0.00,,,0.00,Wunderground v.1.15,2013-02-10 13:40:00,
2013-02-10 08:45:00,11.1,6.7,30.32,SW,232,0.0,2.0,82,0.00,,,0.00,Wunderground v.1.15,2013-02-10 13:45:00,
2013-02-10 08:50:00,12.4,8.0,30.32,SW,230,0.0,2.0,82,0.00,,,0.00,Wunderground v.1.15,2013-02-10 13:50:00,
2013-02-10 09:00:00,14.6,9.3,30.32,South,179,0.0,2.0,79,0.00,,,0.00,Wunderground v.1.15,2013-02-10 14:00:00,
2013-02-10 09:05:00,15.4,10.1,30.32,South,179,0.0,2.0,79,0.00,,,0.00,Wunderground v.1.15,2013-02-10 14:05:00,
2013-02-10 09:10:00,16.2,9.7,30.32,South,174,0.0,2.0,75,0.00,,,0.00,Wunderground v.1.15,2013-02-10 14:10:00,
2013-02-10 09:15:00,17.0,10.4,30.33,SW,220,0.0,2.0,75,0.00,,,0.00,Wunderground v.1.15,2013-02-10 14:15:00,
2013-02-10 09:20:00,18.6,10.8,30.33,SSW,209,0.0,2.0,71,0.00,,,0.00,Wunderground v.1.15,2013-02-10 14:20:00,
2013-02-10 09:30:00,20.2,11.7,30.34,SW,226,0.0,2.0,69,0.00,,,0.00,Wunderground v.1.15,2013-02-10 14:30:00,
2013-02-10 09:35:00,20.8,9.5,30.34,SSE,155,0.0,2.0,61,0.00,,,0.00,Wunderground v.1.15,2013-02-10 14:35:00,
2013-02-10 09:45:00,22.1,8.8,30.34,SW,227,0.0,2.0,56,0.00,,,0.00,Wunderground v.1.15,2013-02-10 14:45:00,
2013-02-10 09:50:00,22.7,9.7,30.34,SSW,192,0.0,2.0,57,0.00,,,0.00,Wunderground v.1.15,2013-02-10 14:50:00,
2013-02-10 09:55:00,23.2,7.3,30.34,SSE,161,0.0,2.0,50,0.00,,,0.01,Wunderground v.1.15,2013-02-10 14:55:00,
2013-02-10 10:00:00,23.8,7.8,30.34,SSE,151,0.0,2.0,50,0.22,,,0.03,Wunderground v.1.15,2013-02-10 15:00:00,
2013-02-10 10:10:00,24.2,10.3,30.34,SSE,148,0.0,2.0,55,0.25,,,0.06,Wunderground v.1.15,2013-02-10 15:10:00,
2013-02-10 10:15:00,25.0,11.1,30.34,SSE,148,0.0,2.0,55,0.14,,,0.07,Wunderground v.1.15,2013-02-10 15:15:00,
2013-02-10 10:20:00,25.4,7.9,30.34,SE,141,0.0,2.0,47,0.14,,,0.08,Wunderground v.1.15,2013-02-10 15:20:00,
2013-02-10 10:25:00,25.6,8.1,30.34,SE,141,0.0,2.0,47,0.16,,,0.10,Wunderground v.1.15,2013-02-10 15:25:00,
2013-02-10 10:30:00,25.8,9.7,30.34,SW,220,0.0,2.0,50,0.13,,,0.10,Wunderground v.1.15,2013-02-10 15:30:00,
2013-02-10 10:40:00,26.1,9.5,30.34,WSW,246,0.0,2.0,49,0.19,,,0.13,Wunderground v.1.15,2013-02-10 15:40:00,
2013-02-10 10:45:00,26.7,10.1,30.35,SE,133,1.0,2.0,49,0.10,,,0.14,Wunderground v.1.15,2013-02-10 15:45:00,
2013-02-10 10:50:00,27.0,8.5,30.35,NW,305,1.0,2.0,45,0.09,,,0.15,Wunderground v.1.15,2013-02-10 15:50:00,
2013-02-10 10:55:00,27.0,9.9,30.35,WNW,282,1.0,2.0,48,0.11,,,0.15,Wunderground v.1.15,2013-02-10 15:55:00,
2013-02-10 11:00:00,27.3,9.2,30.35,NW,316,1.0,2.0,46,0.08,,,0.16,Wunderground v.1.15,2013-02-10 16:00:00,
2013-02-10 11:10:00,27.5,9.4,30.35,WSW,254,1.0,2.0,46,0.08,,,0.16,Wunderground v.1.15,2013-02-10 16:10:00,
2013-02-10 11:15:00,27.5,10.4,30.34,West,271,0.0,2.0,48,0.08,,,0.16,Wunderground v.1.15,2013-02-10 16:15:00,
2013-02-10 11:20:00,27.5,10.4,30.34,West,271,0.0,2.0,48,0.08,,,0.16,Wunderground v.1.15,2013-02-10 16:20:00,
2013-02-10 11:25:00,29.1,11.8,30.34,WNW,287,1.0,2.0,48,0.08,,,0.16,Wunderground v.1.15,2013-02-10 16:25:00,
2013-02-10 11:30:00,29.1,11.8,30.34,WNW,287,1.0,2.0,48,0.08,,,0.16,Wunderground v.1.15,2013-02-10 16:30:00,
2013-02-10 11:35:00,29.1,11.8,30.34,NNW,343,0.0,2.0,48,0.10,,,0.22,Wunderground v.1.15,2013-02-10 16:35:00,
2013-02-10 11:45:00,29.1,11.8,30.34,NNE,18,1.0,2.0,48,0.10,,,0.24,Wunderground v.1.15,2013-02-10 16:45:00,
2013-02-10 11:50:00,29.1,11.8,30.34,NNE,18,1.0,2.0,48,0.10,,,0.24,Wunderground v.1.15,2013-02-10 16:50:00,
2013-02-10 11:55:00,-999.9,-99.9,30.34,North,32767,-999.0,2.0,255,-99.99,,,0.24,Wunderground v.1.15,2013-02-10 16:55:00,
2013-02-10 12:00:00,-999.9,-99.9,30.34,North,32767,-999.0,2.0,255,-99.99,,,0.24,Wunderground v.1.15,2013-02-10 17:00:00,
2013-02-10 12:10:00,-999.9,-99.9,30.34,North,32767,-999.0,2.0,255,-99.99,,,0.24,Wunderground v.1.15,2013-02-10 17:10:00,
2013-02-10 12:15:00,-999.9,-99.9,30.34,North,32767,-999.0,2.0,255,-99.99,,,0.24,Wunderground v.1.15,2013-02-10 17:15:00,
2013-02-10 12:25:00,-999.9,-99.9,30.34,North,32767,-999.0,2.0,255,-99.99,,,0.24,Wunderground v.1.15,2013-02-10 17:25:00,
2013-02-10 12:30:00,-999.9,-99.9,30.34,North,32767,-999.0,2.0,255,-99.99,,,0.24,Wunderground v.1.15,2013-02-10 17:30:00,
2013-02-10 12:35:00,-999.9,-99.9,30.34,North,32767,-999.0,2.0,255,-99.99,,,0.24,Wunderground v.1.15,2013-02-10 17:35:00,
2013-02-10 12:40:00,-999.9,-99.9,30.34,North,32767,-999.0,2.0,255,-99.99,,,0.24,Wunderground v.1.15,2013-02-10 17:40:00,
2013-02-10 12:45:00,-999.9,-99.9,30.33,North,32767,-999.0,2.0,255,-99.99,,,0.24,Wunderground v.1.15,2013-02-10 17:45:00,
2013-02-10 12:55:00,-999.9,-99.9,30.33,North,32767,-999.0,2.0,255,-99.99,,,0.24,Wunderground v.1.15,2013-02-10 17:55:00,
2013-02-10 13:00:00,-999.9,-99.9,30.32,North,32767,-999.0,2.0,255,-99.99,,,0.24,Wunderground v.1.15,2013-02-10 18:00:00,
2013-02-10 13:05:00,-999.9,-99.9,30.32,North,32767,-999.0,2.0,255,-99.99,,,0.24,Wunderground v.1.15,2013-02-10 18:05:00,
2013-02-10 13:10:00,-999.9,-99.9,30.32,North,32767,-999.0,2.0,255,-99.99,,,0.24,Wunderground v.1.15,2013-02-10 18:10:00,
2013-02-10 13:15:00,-999.9,-99.9,30.31,SE,138,0.0,2.0,255,-99.99,,,0.24,Wunderground v.1.15,2013-02-10 18:15:00,
2013-02-10 13:25:00,-999.9,-99.9,30.31,West,261,0.0,2.0,255,0.04,,,0.24,Wunderground v.1.15,2013-02-10 18:25:00,
2013-02-10 13:30:00,-999.9,-99.9,30.30,West,261,0.0,2.0,255,0.04,,,0.24,Wunderground v.1.15,2013-02-10 18:30:00,
2013-02-10 13:35:00,-999.9,-99.9,30.30,North,32767,-999.0,2.0,255,-99.99,,,0.24,Wunderground v.1.15,2013-02-10 18:35:00,
2013-02-10 13:40:00,-999.9,-99.9,30.30,North,32767,-999.0,2.0,255,-99.99,,,0.24,Wunderground v.1.15,2013-02-10 18:40:00,
2013-02-10 13:45:00,-999.9,-99.9,30.30,North,32767,-999.0,2.0,255,-99.99,,,0.24,Wunderground v.1.15,2013-02-10 18:45:00,
2013-02-10 13:50:00,-999.9,-99.9,30.30,SE,138,0.0,2.0,255,0.00,,,0.24,Wunderground v.1.15,2013-02-10 18:50:00,
2013-02-10 14:00:00,-999.9,-99.9,30.29,SE,138,0.0,2.0,255,0.00,,,0.24,Wunderground v.1.15,2013-02-10 19:00:00,
2013-02-10 14:05:00,-999.9,-99.9,30.29,SE,138,0.0,2.0,255,0.00,,,0.24,Wunderground v.1.15,2013-02-10 19:05:00,
2013-02-10 14:10:00,-999.9,-99.9,30.29,SE,138,0.0,2.0,255,0.00,,,0.24,Wunderground v.1.15,2013-02-10 19:10:00,
2013-02-10 14:20:00,-999.9,-99.9,30.29,North,32767,-999.0,2.0,255,-99.99,,,0.24,Wunderground v.1.15,2013-02-10 19:20:00,
2013-02-10 14:25:00,-999.9,-99.9,30.29,North,32767,-999.0,2.0,255,-99.99,,,0.24,Wunderground v.1.15,2013-02-10 19:25:00,
2013-02-10 14:35:00,-999.9,-99.9,30.29,ESE,110,0.0,2.0,255,-99.99,,,0.24,Wunderground v.1.15,2013-02-10 19:35:00,
2013-02-10 14:40:00,-999.9,-99.9,30.29,ESE,110,0.0,2.0,255,-99.99,,,0.24,Wunderground v.1.15,2013-02-10 19:40:00,
2013-02-10 14:45:00,-999.9,-99.9,30.30,North,32767,-999.0,2.0,255,-99.99,,,0.24,Wunderground v.1.15,2013-02-10 19:45:00,
2013-02-10 14:50:00,-999.9,-99.9,30.30,North,32767,-999.0,2.0,255,-99.99,,,0.24,Wunderground v.1.15,2013-02-10 19:50:00,
2013-02-10 14:55:00,-999.9,-99.9,30.30,North,32767,-999.0,2.0,255,-99.99,,,0.24,Wunderground v.1.15,2013-02-10 19:55:00,
2013-02-10 15:00:00,-999.9,-99.9,30.29,ESE,110,0.0,2.0,255,0.00,,,0.24,Wunderground v.1.15,2013-02-10 20:00:00,
2013-02-10 15:05:00,-999.9,-99.9,30.29,ESE,110,0.0,2.0,255,0.00,,,0.24,Wunderground v.1.15,2013-02-10 20:05:00,
2013-02-10 15:10:00,-999.9,-99.9,30.29,ESE,110,0.0,2.0,255,0.00,,,0.24,Wunderground v.1.15,2013-02-10 20:10:00,
2013-02-10 15:15:00,-999.9,-99.9,30.30,ESE,110,0.0,2.0,255,0.00,,,0.24,Wunderground v.1.15,2013-02-10 20:15:00,
2013-02-10 15:20:00,-999.9,-99.9,30.30,ESE,110,0.0,2.0,255,0.00,,,0.24,Wunderground v.1.15,2013-02-10 20:20:00,
2013-02-10 15:25:00,-999.9,-99.9,30.30,ESE,110,0.0,2.0,255,0.00,,,0.24,Wunderground v.1.15,2013-02-10 20:25:00,
2013-02-10 15:30:00,31.5,-99.9,30.30,ESE,110,0.0,2.0,255,0.00,,,0.24,Wunderground v.1.15,2013-02-10 20:30:00,
2013-02-10 15:40:00,31.3,-99.9,30.30,ESE,110,0.0,2.0,255,0.00,,,0.24,Wunderground v.1.15,2013-02-10 20:40:00,
2013-02-10 15:45:00,31.3,-99.9,30.31,South,189,0.0,2.0,255,0.00,,,0.24,Wunderground v.1.15,2013-02-10 20:45:00,
2013-02-10 15:50:00,31.3,-99.9,30.31,South,189,0.0,2.0,255,0.00,,,0.24,Wunderground v.1.15,2013-02-10 20:50:00,
2013-02-10 15:55:00,30.7,-99.9,30.31,SW,220,0.0,2.0,255,0.00,,,0.24,Wunderground v.1.15,2013-02-10 20:55:00,
2013-02-10 16:00:00,30.7,-99.9,30.31,SW,220,0.0,2.0,255,0.00,,,0.24,Wunderground v.1.15,2013-02-10 21:00:00,
2013-02-10 16:10:00,30.7,-99.9,30.31,SW,220,0.0,2.0,255,0.00,,,0.24,Wunderground v.1.15,2013-02-10 21:10:00,
2013-02-10 16:15:00,30.6,15.9,30.32,SW,220,0.0,2.0,54,0.00,,,0.24,Wunderground v.1.15,2013-02-10 21:15:00,
2013-02-10 16:20:00,30.3,16.0,30.32,SW,220,0.0,2.0,55,0.00,,,0.24,Wunderground v.1.15,2013-02-10 21:20:00,
2013-02-10 16:25:00,30.1,15.0,30.32,SW,220,0.0,2.0,53,0.00,,,0.24,Wunderground v.1.15,2013-02-10 21:25:00,
2013-02-10 16:30:00,30.1,14.6,30.31,SW,220,0.0,2.0,52,0.00,,,0.24,Wunderground v.1.15,2013-02-10 21:30:00,
2013-02-10 16:35:00,30.1,14.6,30.31,SW,220,0.0,2.0,52,0.00,,,0.24,Wunderground v.1.15,2013-02-10 21:35:00,
2013-02-10 16:45:00,30.1,14.6,30.31,SW,220,0.0,2.0,52,0.00,,,0.24,Wunderground v.1.15,2013-02-10 21:45:00,
2013-02-10 16:50:00,29.1,13.6,30.31,SW,220,0.0,2.0,52,0.00,,,0.24,Wunderground v.1.15,2013-02-10 21:50:00,
2013-02-10 16:55:00,28.8,14.6,30.31,SW,220,0.0,2.0,55,0.00,,,0.24,Wunderground v.1.15,2013-02-10 21:55:00,
2013-02-10 17:00:00,28.8,14.6,30.31,SW,220,0.0,2.0,55,0.00,,,0.24,Wunderground v.1.15,2013-02-10 22:00:00,
2013-02-10 17:05:00,28.8,14.6,30.31,SW,220,0.0,2.0,55,0.00,,,0.24,Wunderground v.1.15,2013-02-10 22:05:00,
2013-02-10 17:15:00,28.8,14.6,30.30,SW,220,0.0,2.0,55,0.00,,,0.24,Wunderground v.1.15,2013-02-10 22:15:00,
2013-02-10 17:20:00,28.8,14.6,30.30,SW,220,0.0,2.0,55,0.00,,,0.24,Wunderground v.1.15,2013-02-10 22:20:00,
2013-02-10 17:25:00,28.8,14.6,30.30,SW,220,0.0,2.0,55,0.00,,,0.24,Wunderground v.1.15,2013-02-10 22:25:00,
2013-02-10 17:35:00,28.8,14.6,30.31,SW,220,0.0,2.0,55,0.00,,,0.24,Wunderground v.1.15,2013-02-10 22:35:00,
2013-02-10 17:40:00,28.8,14.6,30.31,WNW,291,0.0,2.0,55,0.00,,,0.24,Wunderground v.1.15,2013-02-10 22:40:00,
2013-02-10 17:45:00,28.8,14.6,30.32,SW,220,0.0,2.0,55,0.00,,,0.24,Wunderground v.1.15,2013-02-10 22:45:00,
2013-02-10 17:55:00,24.8,13.2,30.32,SW,220,0.0,2.0,61,0.00,,,0.24,Wunderground v.1.15,2013-02-10 22:55:00,
2013-02-10 18:00:00,24.5,13.3,30.33,SW,220,0.0,2.0,62,0.00,,,0.24,Wunderground v.1.15,2013-02-10 23:00:00,
2013-02-10 18:05:00,24.1,13.3,30.33,SW,220,0.0,2.0,63,0.00,,,0.24,Wunderground v.1.15,2013-02-10 23:05:00,
2013-02-10 18:10:00,23.9,13.1,30.33,SW,220,0.0,2.0,63,0.00,,,0.24,Wunderground v.1.15,2013-02-10 23:10:00,
2013-02-10 18:15:00,23.6,12.5,30.32,SW,220,0.0,2.0,62,0.00,,,0.24,Wunderground v.1.15,2013-02-10 23:15:00,
2013-02-10 18:25:00,23.0,12.3,30.32,SW,220,0.0,2.0,63,0.00,,,0.24,Wunderground v.1.15,2013-02-10 23:25:00,
2013-02-10 18:30:00,23.0,12.6,30.32,SW,220,0.0,2.0,64,0.00,,,0.24,Wunderground v.1.15,2013-02-10 23:30:00,
2013-02-10 18:35:00,22.4,12.1,30.32,SW,220,0.0,2.0,64,0.00,,,0.24,Wunderground v.1.15,2013-02-10 23:35:00,
2013-02-10 18:40:00,22.2,11.9,30.32,SW,220,0.0,2.0,64,0.00,,,0.24,Wunderground v.1.15,2013-02-10 23:40:00,
2013-02-10 18:45:00,21.9,11.6,30.32,SW,220,0.0,2.0,64,0.00,,,0.24,Wunderground v.1.15,2013-02-10 23:45:00,
2013-02-10 18:55:00,21.9,10.9,30.32,SW,220,0.0,2.0,62,0.00,,,0.24,Wunderground v.1.15,2013-02-10 23:55:00,
2013-02-10 19:00:00,21.9,10.9,30.32,SW,220,0.0,2.0,62,0.00,,,0.24,Wunderground v.1.15,2013-02-11 00:00:00,
2013-02-10 19:05:00,21.9,10.9,30.32,SW,220,0.0,2.0,62,0.00,,,0.24,Wunderground v.1.15,2013-02-11 00:05:00,
2013-02-10 19:10:00,21.9,10.9,30.32,SW,220,0.0,2.0,62,0.00,,,0.24,Wunderground v.1.15,2013-02-11 00:10:00,
2013-02-10 19:15:00,20.5,9.5,30.32,SW,220,0.0,2.0,62,0.00,,,0.24,Wunderground v.1.15,2013-02-11 00:15:00,
2013-02-10 19:20:00,20.5,9.5,30.32,SW,220,0.0,2.0,62,0.00,,,0.24,Wunderground v.1.15,2013-02-11 00:20:00,
2013-02-10 19:30:00,19.9,10.7,30.33,SW,220,0.0,2.0,67,0.00,,,0.24,Wunderground v.1.15,2013-02-11 00:30:00,
2013-02-10 19:35:00,19.7,10.5,30.33,SW,220,0.0,2.0,67,0.00,,,0.24,Wunderground v.1.15,2013-02-11 00:35:00,
2013-02-10 19:40:00,19.5,10.3,30.33,SW,220,0.0,2.0,67,0.00,,,0.24,Wunderground v.1.15,2013-02-11 00:40:00,
2013-02-10 19:45:00,19.4,10.2,30.32,SW,220,0.0,2.0,67,0.00,,,0.24,Wunderground v.1.15,2013-02-11 00:45:00,
2013-02-10 19:50:00,19.2,10.0,30.32,SW,220,0.0,2.0,67,0.00,,,0.24,Wunderground v.1.15,2013-02-11 00:50:00,
2013-02-10 20:00:00,18.9,9.7,30.32,SW,220,0.0,2.0,67,0.00,,,0.24,Wunderground v.1.15,2013-02-11 01:00:00,
2013-02-10 20:05:00,18.6,9.5,30.32,SW,220,0.0,2.0,67,0.00,,,0.24,Wunderground v.1.15,2013-02-11 01:05:00,
2013-02-10 20:15:00,18.4,9.6,30.31,SW,220,0.0,2.0,68,0.00,,,0.24,Wunderground v.1.15,2013-02-11 01:15:00,
2013-02-10 20:20:00,18.3,9.8,30.31,SW,220,0.0,2.0,69,0.00,,,0.24,Wunderground v.1.15,2013-02-11 01:20:00,
2013-02-10 20:25:00,18.1,9.6,30.31,SW,220,0.0,2.0,69,0.00,,,0.24,Wunderground v.1.15,2013-02-11 01:25:00,
2013-02-10 20:30:00,18.0,9.9,30.32,SW,220,0.0,2.0,70,0.00,,,0.24,Wunderground v.1.15,2013-02-11 01:30:00,
2013-02-10 20:40:00,17.7,9.6,30.32,SW,220,0.0,2.0,70,0.00,,,0.24,Wunderground v.1.15,2013-02-11 01:40:00,
2013-02-10 20:45:00,17.5,9.7,30.31,SW,220,0.0,2.0,71,0.00,,,0.24,Wunderground v.1.15,2013-02-11 01:45:00,
2013-02-10 20:50:00,17.3,9.5,30.31,SW,220,0.0,2.0,71,0.00,,,0.24,Wunderground v.1.15,2013-02-11 01:50:00,
2013-02-10 20:55:00,17.2,9.4,30.31,SW,220,0.0,2.0,71,0.00,,,0.24,Wunderground v.1.15,2013-02-11 01:55:00,
2013-02-10 21:00:00,17.0,9.2,30.31,SW,220,0.0,2.0,71,0.00,,,0.24,Wunderground v.1.15,2013-02-11 02:00:00,
2013-02-10 21:10:00,16.7,9.2,30.31,SW,220,0.0,2.0,72,0.00,,,0.24,Wunderground v.1.15,2013-02-11 02:10:00,
2013-02-10 21:15:00,16.5,9.0,30.32,SW,220,0.0,2.0,72,0.00,,,0.24,Wunderground v.1.15,2013-02-11 02:15:00,
2013-02-10 21:20:00,16.4,9.3,30.32,SW,220,0.0,2.0,73,0.00,,,0.24,Wunderground v.1.15,2013-02-11 02:20:00,
2013-02-10 21:25:00,16.2,9.1,30.32,SW,220,0.0,2.0,73,0.00,,,0.24,Wunderground v.1.15,2013-02-11 02:25:00,
2013-02-10 21:30:00,16.1,9.3,30.32,SW,220,0.0,2.0,74,0.00,,,0.24,Wunderground v.1.15,2013-02-11 02:30:00,
2013-02-10 21:40:00,15.7,8.9,30.32,SW,220,0.0,2.0,74,0.00,,,0.24,Wunderground v.1.15,2013-02-11 02:40:00,
2013-02-10 21:45:00,15.6,8.5,30.32,SW,220,0.0,2.0,73,0.00,,,0.24,Wunderground v.1.15,2013-02-11 02:45:00,
2013-02-10 21:50:00,15.4,8.6,30.32,SW,220,0.0,2.0,74,0.00,,,0.24,Wunderground v.1.15,2013-02-11 02:50:00,
2013-02-10 21:55:00,15.4,8.6,30.32,SW,220,0.0,2.0,74,0.00,,,0.24,Wunderground v.1.15,2013-02-11 02:55:00,
2013-02-10 22:00:00,15.1,8.3,30.31,SW,220,0.0,2.0,74,0.00,,,0.24,Wunderground v.1.15,2013-02-11 03:00:00,
2013-02-10 22:05:00,14.9,8.1,30.31,SW,220,0.0,2.0,74,0.00,,,0.24,Wunderground v.1.15,2013-02-11 03:05:00,
2013-02-10 22:15:00,14.6,7.8,30.31,SW,220,0.0,2.0,74,0.00,,,0.24,Wunderground v.1.15,2013-02-11 03:15:00,
2013-02-10 22:20:00,14.3,7.5,30.31,SW,220,0.0,2.0,74,0.00,,,0.24,Wunderground v.1.15,2013-02-11 03:20:00,
2013-02-10 22:25:00,14.1,7.3,30.31,SW,220,0.0,2.0,74,0.00,,,0.24,Wunderground v.1.15,2013-02-11 03:25:00,
2013-02-10 22:30:00,14.0,7.2,30.31,SW,220,0.0,2.0,74,0.00,,,0.24,Wunderground v.1.15,2013-02-11 03:30:00,
2013-02-10 22:35:00,13.8,7.0,30.31,SW,220,0.0,2.0,74,0.00,,,0.24,Wunderground v.1.15,2013-02-11 03:35:00,
2013-02-10 22:45:00,13.5,6.8,30.31,SW,220,0.0,2.0,74,0.00,,,0.24,Wunderground v.1.15,2013-02-11 03:45:00,
2013-02-10 22:50:00,13.1,6.4,30.31,SW,220,0.0,2.0,74,0.00,,,0.24,Wunderground v.1.15,2013-02-11 03:50:00,
2013-02-10 22:55:00,12.9,6.2,30.31,SW,220,0.0,2.0,74,0.00,,,0.24,Wunderground v.1.15,2013-02-11 03:55:00,
2013-02-10 23:05:00,12.6,6.2,30.30,SW,220,0.0,2.0,75,0.00,,,0.24,Wunderground v.1.15,2013-02-11 04:05:00,
2013-02-10 23:10:00,12.4,6.0,30.30,SW,220,0.0,2.0,75,0.00,,,0.24,Wunderground v.1.15,2013-02-11 04:10:00,
2013-02-10 23:20:00,12.1,5.7,30.31,SW,220,0.0,2.0,75,0.00,,,0.24,Wunderground v.1.15,2013-02-11 04:20:00,
2013-02-10 23:25:00,11.9,5.5,30.31,SW,220,0.0,2.0,75,0.00,,,0.24,Wunderground v.1.15,2013-02-11 04:25:00,
2013-02-10 23:30:00,11.7,5.3,30.31,SW,220,0.0,2.0,75,0.00,,,0.24,Wunderground v.1.15,2013-02-11 04:30:00,
2013-02-10 23:35:00,11.6,5.2,30.31,SW,220,0.0,2.0,75,0.00,,,0.24,Wunderground v.1.15,2013-02-11 04:35:00,
2013-02-10 23:40:00,11.4,5.3,30.31,SW,220,0.0,2.0,76,0.00,,,0.24,Wunderground v.1.15,2013-02-11 04:40:00,
2013-02-10 23:45:00,11.4,5.0,30.31,SW,220,0.0,2.0,75,0.00,,,0.24,Wunderground v.1.15,2013-02-11 04:45:00,
2013-02-10 23:55:00,11.1,4.7,30.31,SW,220,0.0,2.0,75,0.00,,,0.24,Wunderground v.1.15,2013-02-11 04:55:00,